[[{"header":{"parameterUnit":"m.s-1","parameterCategory":1,"la1":30.2991,"la2":30.254,"lo1":-89.0895,"lo2":-89.0444,"dy":0.0017,"dx":0.0017,"nx":28,"ny":28,"refTime":"2025-09-03T03:00:00:Z","depth":0,"parameterNumber":2,"parameterNumberName":"U-component_of_WINDS"},"data":[0,0,0,0,0,0,0,0,0,0,0,0,0,0,0,0,0,0,0,0,0,0,0,0,0,0,0,0,0,0,0,0,0,0,0,0,0,0,0,0,0,0,0,0,0,0,0,0,0,0,0,0,0,0,0,0,0,0,-1.2569,-1.2568,0,-1.2489,-1.2488,-1.2487,-1.2368,-1.2366,-1.2364,-1.2362,-1.2282,-1.2282,-1.2282,0,0,0,0,0,0,0,0,0,0,0,0,0,-1.2621,-1.2621,-1.2569,-1.2568,-1.2567,-1.2489,-1.2488,-1.2487,-1.2369,-1.2366,-1.2364,-1.2361,-1.2283,-1.2282,-1.2282,0,0,0,0,0,0,0,0,0,0,0,0,0,-1.2576,-1.2621,-1.257,-1.2499,-1.2492,-1.2489,-1.2488,-1.2487,-1.2369,-1.2366,-1.2363,-1.236,-1.2283,-1.2282,-1.2282,-1.2343,0,0,-1.2281,-1.2281,0,0,0,0,0,0,0,0,-1.2579,-1.2574,-1.251,-1.2504,-1.2496,-1.2435,-1.2477,-1.2439,-1.237,-1.2416,-1.2362,-1.2359,-1.2336,-1.2331,-1.2323,-1.2339,-1.2336,-1.2281,-1.2281,-1.2281,-1.2281,0,0,0,0,0,0,0,-1.2582,-1.2577,-1.2538,-1.251,-1.2501,-1.2472,-1.2462,-1.2469,-1.2395,-1.2412,-1.2403,-1.2395,-1.2332,-1.2324,-1.232,-1.2335,-1.2281,-1.2281,-1.2281,-1.2281,-1.2396,-1.2399,0,0,0,0,0,0,-1.2595,-1.258,-1.254,-1.2535,-1.253,-1.2473,-1.2462,-1.2458,-1.2394,-1.2381,-1.2398,-1.239,-1.2326,-1.2321,-1.2317,-1.2383,-1.2281,-1.2281,-1.2281,-1.2393,-1.2397,-1.24,0,0,0,0,0,0,-1.2597,-1.2593,-1.2543,-1.2555,-1.2547,-1.2476,-1.2472,-1.2458,-1.245,-1.2383,-1.237,-1.2403,-1.2323,-1.2318,-1.2337,-1.2379,-1.2281,-1.228,-1.2389,-1.2394,-1.2398,-1.2518,0,0,0,0,0,0,-1.2599,-1.2594,-1.2617,-1.2557,-1.2547,-1.2565,-1.2475,-1.2459,-1.245,-1.2438,-1.2385,-1.2373,-1.232,-1.2338,-1.2337,-1.2377,-1.228,-1.2385,-1.2391,-1.2397,-1.251,-1.2526,-1.254,0,0,0,0,0,-1.2601,-1.2654,-1.2618,-1.2614,-1.2573,-1.2567,-1.2562,-1.2499,-1.2454,-1.2475,-1.2432,-1.2375,-1.2375,-1.2341,-1.2339,-1.238,-1.2382,-1.2389,-1.2396,-1.2503,-1.2523,-1.254,0,0,0,0,0,0,-1.2722,-1.2645,-1.2604,-1.2639,-1.2611,-1.2547,-1.2573,-1.2522,-1.2506,-1.2497,-1.242,-1.2409,-1.2438,-1.241,-1.2374,-1.2435,-1.2369,-1.2377,-1.2452,-1.247,-1.2485,-1.2491,-1.228,0,0,0,0,0,-1.2752,-1.2754,-1.2687,-1.2724,-1.2712,-1.2645,-1.2641,-1.2594,-1.2562,-1.2549,-1.2508,-1.2479,-1.2472,-1.2469,-1.246,-1.2505,-1.2492,-1.2532,-1.2547,-1.256,-1.2567,-1.2588,-1.2605,-1.2424,-1.2424,-1.2424,0,0,-1.2816,-1.2774,-1.278,-1.2747,-1.2719,-1.2723,-1.2636,-1.2644,-1.2645,-1.2551,-1.2566,-1.2535,-1.2498,-1.253,-1.2543,-1.2508,-1.2614,-1.2569,-1.258,-1.258,-1.2597,-1.2615,-1.263,-1.2429,-1.2428,-1.2427,0,0,-1.2933,-1.2901,-1.2928,-1.2902,-1.2861,-1.2816,-1.2823,-1.2767,-1.2742,-1.2756,-1.2685,-1.2686,-1.2677,-1.2653,-1.2639,-1.2746,-1.2693,-1.2745,-1.2825,-1.2846,-1.286,-1.2873,-1.2911,-1.2925,-1.2753,-1.2753,-1.2753,0,-1.3017,-1.3019,-1.2949,-1.2961,-1.2949,-1.2862,-1.2889,-1.2867,-1.2825,-1.2819,-1.2781,-1.2766,-1.2735,-1.276,-1.2786,-1.2778,-1.2783,-1.2751,-1.2864,-1.2875,-1.2886,-1.2921,-1.2936,-1.2759,-1.2759,-1.2758,-1.2757,0,-1.3124,-1.3126,-1.3153,-1.3114,-1.3105,-1.3124,-1.3058,-1.3057,-1.3011,-1.2971,-1.2986,-1.2946,-1.2925,-1.2928,-1.2884,-1.2947,-1.2927,-1.2878,-1.2811,-1.2911,-1.2943,-1.2956,-1.2769,-1.2767,-1.2765,-1.2763,0,0,-1.3315,-1.3236,-1.3248,-1.3228,-1.3176,-1.3177,-1.3192,-1.3171,-1.3172,-1.3146,-1.3157,-1.315,-1.3103,-1.3088,-1.3041,-1.306,-1.3146,-1.3007,-1.3005,-1.3035,-1.3213,-1.325,-1.3267,-1.311,-1.3113,-1.3115,-1.3216,0,-1.3422,-1.3443,-1.3381,-1.3418,-1.3419,-1.3336,-1.3349,-1.3319,-1.3281,-1.3277,-1.3235,-1.3231,-1.3171,-1.3161,-1.3176,-1.3133,-1.3181,-1.3125,-1.312,-1.3121,-1.3132,-1.3284,-1.3324,-1.3421,-1.3228,-1.323,-1.3231,0,-1.3549,-1.3529,-1.3566,-1.351,-1.3509,-1.3522,-1.3497,-1.3494,-1.3458,-1.3429,-1.3412,-1.3356,-1.3367,-1.3303,-1.3317,-1.328,-1.3274,-1.3253,-1.3255,-1.3253,-1.3182,-1.3285,-1.3451,-1.3466,-1.325,-1.3249,-1.3247,0,-1.3685,-1.3667,-1.3686,-1.3672,-1.3608,-1.3619,-1.3593,-1.3553,-1.3545,-1.3524,-1.3517,-1.3498,-1.3488,-1.3475,-1.3415,-1.3374,-1.3437,-1.3367,-1.3413,-1.3415,-1.343,-1.343,-1.3598,-1.3427,-1.3427,-1.3427,-1.3426,0,-1.381,-1.3836,-1.3746,-1.3758,-1.3784,-1.3712,-1.3741,-1.3706,-1.3672,-1.3676,-1.3603,-1.3609,-1.353,-1.3527,-1.348,-1.3499,-1.3495,-1.3472,-1.346,-1.3479,-1.3482,-1.3474,-1.3466,-1.343,-1.343,-1.3429,-1.3428,0,-1.3966,-1.3907,-1.3923,-1.386,-1.3845,-1.3868,-1.3814,-1.3823,-1.378,-1.3786,-1.3784,-1.3717,-1.3709,-1.3648,-1.3628,-1.3596,-1.3632,-1.3607,-1.3645,-1.3636,-1.3685,-1.3682,-1.3854,-1.3873,-1.3691,-1.3692,-1.3694,0,-1.4051,-1.4068,-1.4008,-1.4005,-1.3982,-1.3978,-1.3969,-1.3898,-1.3891,-1.3851,-1.3865,-1.3851,-1.3836,-1.3828,-1.3778,-1.3761,-1.3734,-1.3796,-1.3731,-1.375,-1.3735,-1.3735,-1.3736,-1.381,-1.3812,-1.3814,-1.3815,0,-1.4206,-1.4175,-1.4164,-1.4143,-1.4133,-1.4113,-1.4088,-1.409,-1.4012,-1.4008,-1.3999,-1.3987,-1.3965,-1.3953,-1.3927,-1.39,-1.3845,-1.3836,-1.3845,-1.3865,-1.3887,-1.3876,-1.3682,-1.3832,-1.3831,-1.383,-1.3829,-1.3828,-1.4328,-1.434,-1.4299,-1.4288,-1.4262,-1.4241,-1.4245,-1.4203,-1.4194,-1.417,-1.4129,-1.4126,-1.4088,-1.4048,-1.4025,-1.4022,-1.399,-1.4004,-1.4007,-1.4012,-1.4022,-1.3887,-1.4017,-1.4016,-1.4016,-1.4015,-1.4015,0,-1.448,-1.4449,-1.444,-1.4407,-1.4399,-1.4347,-1.4317,-1.4314,-1.4311,-1.4281,-1.4267,-1.4256,-1.4243,-1.4192,-1.4173,-1.4181,-1.4155,-1.4178,-1.4177,-1.4172,-1.4052,-1.4045,-1.4199,-1.4199,-1.4199,-1.4199,-1.4199,-1.4199,-1.4558,-1.4574,-1.4539,-1.4542,-1.4511,-1.4506,-1.4494,-1.4473,-1.4448,-1.4439,-1.4428,-1.4394,-1.4354,-1.4332,-1.4318,-1.4303,-1.43,-1.4332,-1.4309,-1.4198,-1.418,-1.4163,-1.4157,-1.4331,-1.4332,-1.4428,-1.4429,-1.443]},{"header":{"parameterUnit":"m.s-1","parameterCategory":1,"la1":30.2991,"la2":30.254,"lo1":-89.0895,"lo2":-89.0444,"dy":0.0017,"dx":0.0017,"nx":28,"ny":28,"refTime":"2025-09-03T03:00:00:Z","depth":0,"parameterNumber":3,"parameterNumberName":"V-component_of_WINDS"},"data":[0,0,0,0,0,0,0,0,0,0,0,0,0,0,0,0,0,0,0,0,0,0,0,0,0,0,0,0,0,0,0,0,0,0,0,0,0,0,0,0,0,0,0,0,0,0,0,0,0,0,0,0,0,0,0,0,0,0,0.5913,0.5912,0,0.5814,0.5813,0.5812,0.5756,0.5755,0.5755,0.5755,0.565,0.5648,0.5645,0,0,0,0,0,0,0,0,0,0,0,0,0,0.605,0.6048,0.5913,0.5912,0.5911,0.5814,0.5813,0.5812,0.5756,0.5755,0.5755,0.5755,0.5651,0.5648,0.5645,0,0,0,0,0,0,0,0,0,0,0,0,0,0.5975,0.6047,0.5913,0.5871,0.5866,0.5815,0.5813,0.5811,0.5756,0.5755,0.5755,0.5755,0.5652,0.5648,0.5644,0.5626,0,0,0.5632,0.5631,0,0,0,0,0,0,0,0,0.5979,0.597,0.5879,0.5874,0.5868,0.5797,0.5823,0.5749,0.5756,0.5798,0.5755,0.5755,0.5699,0.5691,0.5673,0.5621,0.5616,0.5632,0.563,0.5628,0.5627,0,0,0,0,0,0,0,0.5985,0.5974,0.5874,0.5877,0.5871,0.5856,0.5845,0.5809,0.5751,0.5794,0.579,0.5779,0.5696,0.5677,0.567,0.5615,0.5632,0.5629,0.5626,0.5625,0.5542,0.5543,0,0,0,0,0,0,0.5997,0.5979,0.5877,0.5871,0.5924,0.5854,0.5842,0.582,0.5751,0.574,0.5779,0.5777,0.5684,0.5675,0.5666,0.564,0.5628,0.5624,0.5622,0.5542,0.5542,0.5543,0,0,0,0,0,0,0.6,0.5988,0.5881,0.5923,0.5909,0.5852,0.5828,0.5818,0.5799,0.574,0.5729,0.5771,0.5683,0.5672,0.5637,0.5636,0.5622,0.5619,0.5542,0.5542,0.5543,0.5588,0,0,0,0,0,0,0.6004,0.599,0.5983,0.5924,0.5907,0.5854,0.5828,0.5817,0.5793,0.5789,0.5729,0.5719,0.5682,0.5643,0.5633,0.563,0.5616,0.5542,0.5542,0.5542,0.5586,0.559,0.5593,0,0,0,0,0,0.6009,0.5999,0.5983,0.5971,0.5897,0.5854,0.5844,0.5803,0.5793,0.5785,0.5747,0.5721,0.5638,0.564,0.5628,0.5624,0.5542,0.5542,0.5542,0.5585,0.5589,0.5593,0,0,0,0,0,0,0.6057,0.599,0.5972,0.5942,0.5904,0.5844,0.5833,0.5809,0.5772,0.5769,0.5719,0.5706,0.5676,0.5646,0.5649,0.5603,0.5587,0.5585,0.5623,0.5626,0.563,0.5637,0.5612,0,0,0,0,0,0.6065,0.6037,0.5979,0.5958,0.594,0.589,0.587,0.5842,0.58,0.5784,0.5743,0.5703,0.5668,0.5645,0.561,0.5582,0.5568,0.5573,0.5577,0.558,0.5578,0.5562,0.5564,0.5544,0.5544,0.5544,0,0,0.6079,0.6039,0.6024,0.5966,0.5934,0.5905,0.5877,0.5847,0.5825,0.5779,0.5743,0.5712,0.5664,0.5633,0.5617,0.5607,0.5581,0.558,0.5583,0.558,0.5562,0.5564,0.5566,0.5544,0.5544,0.5544,0,0,0.609,0.6057,0.6036,0.6005,0.5957,0.5924,0.5919,0.5864,0.5842,0.5806,0.5771,0.5743,0.5683,0.5651,0.5626,0.5627,0.5601,0.5617,0.5633,0.5618,0.5619,0.562,0.5621,0.5621,0.5616,0.5616,0.5616,0,0.6114,0.607,0.6028,0.6001,0.5977,0.5936,0.5914,0.5885,0.5827,0.5811,0.5802,0.5727,0.5691,0.5652,0.5652,0.5634,0.5626,0.5623,0.5623,0.5623,0.5624,0.5623,0.5624,0.5618,0.5618,0.5618,0.5617,0,0.6101,0.6072,0.606,0.6008,0.5982,0.5958,0.5912,0.5891,0.5866,0.5833,0.5797,0.5754,0.5709,0.5697,0.5672,0.5654,0.565,0.5632,0.5615,0.5629,0.5627,0.5627,0.5621,0.562,0.562,0.5619,0,0,0.6139,0.6065,0.6061,0.6037,0.5982,0.5957,0.5931,0.5889,0.5872,0.5834,0.581,0.5761,0.5745,0.5717,0.5688,0.5674,0.5678,0.5658,0.5656,0.5663,0.5656,0.567,0.5671,0.5661,0.566,0.566,0.566,0,0.6142,0.6095,0.6057,0.6023,0.5995,0.5956,0.5933,0.5896,0.5866,0.5837,0.5802,0.5769,0.575,0.5733,0.5718,0.5681,0.5676,0.568,0.5637,0.5636,0.5651,0.567,0.5684,0.5686,0.566,0.5659,0.5659,0,0.614,0.6105,0.6069,0.6017,0.6004,0.5984,0.5943,0.5916,0.5873,0.5852,0.5822,0.5792,0.5761,0.5748,0.5706,0.571,0.569,0.5669,0.5668,0.5662,0.5648,0.5664,0.5686,0.5686,0.5658,0.5658,0.5658,0,0.6171,0.6115,0.6086,0.6067,0.6006,0.5993,0.5967,0.5924,0.5901,0.5864,0.5849,0.5809,0.5787,0.5756,0.5716,0.571,0.5678,0.5661,0.5658,0.566,0.5653,0.5654,0.5672,0.5641,0.5641,0.5641,0.5641,0,0.6179,0.6158,0.61,0.6082,0.6058,0.6015,0.5991,0.5962,0.5924,0.5899,0.5862,0.584,0.5788,0.5758,0.5726,0.5696,0.5686,0.5668,0.566,0.5671,0.5674,0.5657,0.5656,0.5641,0.5641,0.5641,0.5641,0,0.6209,0.617,0.6136,0.6082,0.6067,0.6052,0.6005,0.5986,0.5954,0.5923,0.5913,0.5863,0.5827,0.5784,0.5733,0.5711,0.5684,0.5671,0.5699,0.5694,0.5694,0.5695,0.5702,0.57,0.5672,0.5672,0.5672,0,0.6217,0.62,0.6145,0.6126,0.6102,0.6072,0.6049,0.6006,0.5984,0.5934,0.5921,0.5883,0.585,0.5794,0.5752,0.5713,0.5699,0.5704,0.5693,0.5705,0.5699,0.5701,0.5699,0.5707,0.5708,0.5708,0.5709,0,0.6234,0.6216,0.6185,0.6147,0.6121,0.6089,0.6055,0.6042,0.5992,0.5968,0.5932,0.5906,0.5856,0.5818,0.5774,0.5745,0.5719,0.5713,0.571,0.5721,0.5738,0.5729,0.5707,0.5712,0.5712,0.5712,0.5712,0.5711,0.6253,0.6237,0.6196,0.6163,0.6133,0.6103,0.6083,0.6049,0.6018,0.5975,0.5951,0.5915,0.5873,0.5811,0.5784,0.5755,0.5745,0.5742,0.5741,0.574,0.5744,0.5743,0.5747,0.5747,0.5746,0.5746,0.5746,0,0.6269,0.6241,0.6211,0.6166,0.614,0.6118,0.608,0.6059,0.6029,0.5992,0.5961,0.5919,0.5883,0.5839,0.5799,0.5784,0.577,0.5775,0.5775,0.5769,0.5755,0.5761,0.5786,0.5786,0.5786,0.5786,0.5786,0.5786,0.6274,0.6246,0.6222,0.6179,0.615,0.6116,0.6096,0.6068,0.6039,0.5995,0.5964,0.5937,0.5897,0.5854,0.5819,0.5807,0.5794,0.5802,0.5786,0.5774,0.577,0.5767,0.5772,0.58,0.58,0.5803,0.5803,0.5803]}]]